Weather in Dehkanabad

Uzbekistan     38°20′56″N   66°29′42″E
temp.,
°C
wind,
m/s
gust,
m/s
humid.,
%
clouds,
%
prec.,
mm/h
press.,
hPa
HPBL,
m
22 april, thu
thu2223:00+8n11480 0.0 101911
02:00+7e22451 0.0 101910
05:00+6e22430 0.0 101910
08:00+11ne11344 0.0 1020207
11:00+16w32260 0.0 10201116
14:00+18wnw42230 0.0 10201789
17:00+18nnw33260 0.0 10201426
20:00+12nne22460 0.0 102111
23 april, fri
fri2323:00+11se22450 0.0 102111
02:00+10ese22463 0.0 102011
05:00+10ese22475 0.0 102013
08:00+15se11375 0.0 1021154
11:00+19nw22290 0.0 10201769
14:00+21nnw54250 0.0 10182192
17:00+20nnw64300 0.0 10171145
20:00+15ne22410 0.0 101812
24 april, sat
sat2423:00+13ese22375 0.0 101812
02:00+13ese33345 0.0 101715
05:00+12se22365 0.0 101711
08:00+17s0029100 0.0 1019164
11:00+20wnw2228100 0.0 10191132
14:00+22nw2224100 0.0 10181599
17:00+22n4325100 0.0 10171309
20:00+16ne2237100 0.0 101815
25 april, sun
sun2523:00+15e223782 0.0 101911
02:00+15ese3232100 0.0 101812
05:00+14ese223414 0.0 101711
08:00+19se1129100 0.0 101876
11:00+23nw2224100 0.0 10181086
14:00+25n43232 0.0 10161642
17:00+24n542446 0.0 10151333
20:00+18ene2233100 0.0 101612
26 april, mon
mon2623:00+17ese333529 0.0 101615
02:00+17se3333100 0.0 101515
05:00+17ese333175 0.0 101415
08:00+22se222895 0.0 1015100
11:00+26nw222096 0.0 10141860
14:00+26nnw6323100 0.0 10131731
17:00+25n432537 0.0 10131419
20:00+19ne223512 0.0 101311